Location: Bédeille
(43.0872°N, 1.1041°E)
Time: 12:16:33
(UTC+00:00)

Cosmos 1869 - Pass Details

Date: 03 February 2023
Orbit: 510 x 550 km, 82.5° (Epoch: 19 March)

Event Time Altitude Azimuth Distance (km) Brightness Sun altitude
Rises 19:04:00 0° 347° (NNW) 2,662 6.9 -21.0°
Reaches altitude 10° 19:06:09 10° 343° (NNW) 1,775 6.1 -21.4°
Maximum altitude 19:09:59 57° 265° (W) 632 3.8 -22.1°
Drops below altitude 10° 19:13:50 10° 187° (S) 1,786 6.0 -22.8°
Sets 19:16:00 0° 183° (S) 2,680 6.9 -23.2°
